Weather History for West Plains, MO

Change the Weather History Date:

Wednesday, April 10, 2013

  Actual Average Record
Temperature  
Mean Temperature 61 °F 56 °F  
Max Temperature 79 °F 68 °F 89 °F (2001)
Min Temperature 42 °F 44 °F 26 °F (1960)
Degree Days  
Heating Degree Days 4 10  
Month to date heating degree days 100 110  
Since 1 July heating degree days 4146 4120  
Cooling Degree Days 0 1  
Month to date cooling degree days 7 5  
Year to date cooling degree days 7 9  
Growing Degree Days 12 (Base 50)    
Moisture  
Dew Point 58 °F    
Average Humidity 79    
Maximum Humidity 100    
Minimum Humidity 58    
Precipitation  
Precipitation 1.84 in 0.15 in 2.42 in (2008)
Month to date precipitation 1.92 1.33  
Year to date precipitation 12.99 11.18  
Sea Level Pressure  
Sea Level Pressure 29.73 in    
Wind  
Wind Speed 14 mph (SW)    
Max Wind Speed 30 mph    
Max Gust Speed 40 mph    
Visibility 7 miles    
Events Fog , Rain , Thunderstorm    
T = Trace of Precipitation, MM = Missing Value Source: NWS Daily Summary

Daily Weather History Graph

Daily Weather History Graph

Search for Another Location

Airport:

Trip Planner

Search our weather history database for the weather conditions in past years. The results will help you decide how hot, cold, wet, or windy it might be!

Date:

Astronomy

Apr. 10, 2013 Rise Set
Actual Time 6:40 AM CDT 7:38 PM CDT
Civil Twilight 6:13 AM CDT 8:04 PM CDT
Nautical Twilight 5:42 AM CDT 8:36 PM CDT
Astronomical Twilight 5:09 AM CDT 9:08 PM CDT
Moon 6:37 AM CDT (4/10) 8:12 PM CDT (4/10)
Length of Visible Light 13h 51m
Length of Day
12h 58m
New Moon, 0% of the Moon is Illuminated
Apr 10
New Moon
Apr 18
First Quarter
Apr 25
Full
May 2
Last Quarter
May 9
New

Hourly Weather History & Observations

Time (CDT) Temp. Windchill Dew Point Humidity Pressure Visibility Wind Dir Wind Speed Gust Speed Precip Events Conditions
12:53 AM 72.0 °F - 64.0 °F 76% 29.78 in 10.0 mi SSE 12.7 mph - N/A   Overcast
1:53 AM 72.0 °F - 64.0 °F 76% 29.78 in 10.0 mi South 9.2 mph - N/A   Scattered Clouds
2:53 AM 72.0 °F - 64.0 °F 76% 29.78 in 10.0 mi South 8.1 mph - N/A   Overcast
3:53 AM 72.0 °F - 63.0 °F 73% 29.78 in 10.0 mi South 8.1 mph - N/A   Overcast
4:53 AM 72.0 °F - 63.0 °F 73% 29.79 in 10.0 mi South 9.2 mph - N/A   Overcast
5:53 AM 71.1 °F - 63.0 °F 75% 29.80 in 10.0 mi South 10.4 mph - N/A   Overcast
6:53 AM 71.1 °F - 63.0 °F 75% 29.78 in 10.0 mi South 13.8 mph 20.7 mph N/A   Mostly Cloudy
7:53 AM 71.1 °F - 64.0 °F 78% 29.80 in 10.0 mi South 13.8 mph 24.2 mph N/A   Partly Cloudy
8:53 AM 73.0 °F - 64.0 °F 73% 29.80 in 10.0 mi South 15.0 mph 23.0 mph N/A   Scattered Clouds
9:53 AM 73.9 °F - 64.0 °F 71% 29.80 in 10.0 mi South 18.4 mph 26.5 mph N/A   Partly Cloudy
10:27 AM 73.4 °F - 62.6 °F 69% 29.84 in 10.0 mi South 16.1 mph 20.7 mph N/A   Mostly Cloudy
10:37 AM 73.4 °F - 64.4 °F 73% 29.84 in 10.0 mi South 16.1 mph 25.3 mph N/A   Mostly Cloudy
10:53 AM 73.9 °F - 64.0 °F 71% 29.80 in 10.0 mi South 13.8 mph 21.9 mph N/A   Overcast
11:14 AM 73.4 °F - 64.4 °F 73% 29.84 in 10.0 mi South 13.8 mph 20.7 mph N/A   Overcast
12:01 PM 73.4 °F - 64.4 °F 73% 29.83 in 10.0 mi SSE 18.4 mph 21.9 mph N/A   Mostly Cloudy
12:34 PM 73.4 °F - 64.4 °F 73% 29.81 in 10.0 mi SSE 11.5 mph 23.0 mph N/A   Overcast
1:53 PM 77.0 °F - 64.9 °F 66% 29.74 in 10.0 mi SSE 17.3 mph 25.3 mph N/A   Mostly Cloudy
2:53 PM 79.0 °F - 63.0 °F 58% 29.69 in 10.0 mi South 16.1 mph 23.0 mph N/A   Scattered Clouds
3:53 PM 79.0 °F - 62.1 °F 56% 29.66 in 10.0 mi South 24.2 mph 34.5 mph N/A   Mostly Cloudy
4:53 PM 75.0 °F - 63.0 °F 66% 29.61 in 10.0 mi SSE 24.2 mph 38.0 mph N/A   Scattered Clouds
5:14 PM 75.2 °F - 64.4 °F 69% 29.65 in 10.0 mi South 20.7 mph 36.8 mph N/A   Mostly Cloudy
5:21 PM 73.4 °F - 64.4 °F 73% 29.66 in 10.0 mi South 25.3 mph 34.5 mph N/A   Scattered Clouds
5:45 PM 73.4 °F - 64.4 °F 73% 29.67 in 10.0 mi South 21.9 mph 33.4 mph N/A Thunderstorm Mostly Cloudy
5:53 PM 72.0 °F - 64.9 °F 78% 29.63 in 10.0 mi South 17.3 mph 28.8 mph 0.00 in Rain , Thunderstorm Light Rain
6:00 PM 71.6 °F - 64.4 °F 78% 29.66 in 10.0 mi South 13.8 mph 27.6 mph 0.00 in Rain Light Rain
6:10 PM 71.6 °F - 64.4 °F 78% 29.67 in 10.0 mi South 13.8 mph 24.2 mph 0.00 in Rain , Thunderstorm Light Rain
6:18 PM 69.8 °F - 64.4 °F 83% 29.69 in 1.5 mi West 23.0 mph 31.1 mph 0.23 in Rain , Thunderstorm Thunderstorms and Rain
6:21 PM 62.6 °F - 60.8 °F 94% 29.69 in 0.8 mi West 23.0 mph 34.5 mph 0.37 in Rain , Thunderstorm Heavy Thunderstorms and Rain
6:27 PM 57.2 °F - 57.2 °F 100% 29.69 in 0.5 mi West 26.5 mph 35.7 mph 0.68 in Fog , Rain , Thunderstorm Heavy Thunderstorms and Rain
6:38 PM 53.6 °F - 51.8 °F 94% 29.75 in 1.2 mi West 20.7 mph 40.3 mph 0.92 in Rain , Thunderstorm Heavy Thunderstorms and Rain
6:42 PM 51.8 °F - 51.8 °F 100% 29.69 in 0.8 mi WNW 26.5 mph 39.1 mph 1.13 in Rain , Thunderstorm Heavy Thunderstorms and Rain
6:49 PM 51.8 °F - 50.0 °F 94% 29.67 in 0.8 mi WNW 27.6 mph 39.1 mph 1.31 in Rain , Thunderstorm Heavy Thunderstorms and Rain
6:53 PM 52.0 °F - 51.1 °F 97% 29.66 in 1.0 mi WNW 23.0 mph 38.0 mph 1.34 in Rain , Thunderstorm Heavy Thunderstorms and Rain
6:55 PM 51.8 °F - 51.8 °F 100% 29.69 in 1.5 mi WNW 20.7 mph 38.0 mph 0.02 in Rain , Thunderstorm Heavy Thunderstorms and Rain
7:14 PM 53.6 °F - 51.8 °F 94% 29.74 in 3.0 mi West 8.1 mph 18.4 mph 0.19 in Rain , Thunderstorm Thunderstorms and Rain
7:36 PM 53.6 °F - 51.8 °F 94% 29.73 in 2.5 mi West 6.9 mph - 0.29 in Rain Rain
7:45 PM 53.6 °F - 51.8 °F 94% 29.74 in 3.0 mi West 9.2 mph - 0.34 in Rain , Thunderstorm Heavy Rain
7:53 PM 53.1 °F - 52.0 °F 96% 29.73 in 3.0 mi WSW 10.4 mph - 0.38 in Rain , Thunderstorm Rain
8:18 PM 53.6 °F - 53.6 °F 100% 29.68 in 5.0 mi NNE 4.6 mph - 0.09 in Rain Rain
8:53 PM 54.0 °F - 53.1 °F 97% 29.68 in 10.0 mi West 8.1 mph - 0.11 in Rain Light Rain
9:53 PM 53.1 °F - 52.0 °F 96% 29.68 in 10.0 mi WSW 5.8 mph - 0.00 in   Overcast
10:01 PM 53.6 °F - 53.6 °F 100% 29.71 in 10.0 mi WSW 5.8 mph - N/A   Overcast
10:25 PM 51.8 °F - 51.8 °F 100% 29.72 in 1.8 mi West 15.0 mph - N/A   Overcast
10:29 PM 51.8 °F - 51.8 °F 100% 29.73 in 0.8 mi WSW 15.0 mph 21.9 mph N/A   Overcast
10:43 PM 48.2 °F - 48.2 °F 100% 29.74 in 1.2 mi West 15.0 mph 23.0 mph N/A   Overcast
10:47 PM 48.2 °F - 48.2 °F 100% 29.75 in 3.0 mi West 11.5 mph 23.0 mph N/A   Overcast
10:53 PM 48.0 °F - 48.0 °F 100% 29.73 in 4.0 mi WNW 16.1 mph 21.9 mph 0.01 in   Overcast
11:22 PM 44.6 °F 37.8 °F 44.6 °F 100% 29.77 in 10.0 mi WNW 15.0 mph 20.7 mph N/A   Overcast
11:53 PM 44.1 °F 37.4 °F 43.0 °F 96% 29.77 in 2.5 mi West 13.8 mph 21.9 mph N/A   Overcast